DO5DHA-11 Weather Reports


Display with metric or nautical units.
time (UTC)temp
F
wind
direction
speed
MPH
gust
MPH
rain 1hr
in
rain 24hr
in
rain mn
in
humidity
%
barometer
mb
20260507003905 53 180 0.0 0.0 0.00 0.00 0.00 78 1009.0
20260507003405 53 180 0.0 0.0 0.00 0.00 0.00 78 1009.0
20260507002905 53 180 0.0 0.0 0.00 0.00 0.00 78 1009.0
20260507002405 53 180 0.0 0.0 0.00 0.00 0.00 78 1009.0
20260507001905 53 180 0.0 0.0 0.00 0.00 0.00 78 1009.0
20260507001405 53 202 0.0 0.0 0.00 0.00 0.00 78 1009.0
20260507000905 54 202 0.0 0.0 0.00 0.00 0.00 78 1009.0
20260507000406 54 225 0.0 0.0 0.00 0.00 0.00 78 1008.9
20260506235905 54 225 0.0 0.0 0.00 0.00 0.00 78 1008.9
20260506235406 54 180 0.0 0.0 0.00 0.00 0.00 78 1008.7
20260506234905 54 180 0.0 0.0 0.00 0.00 0.00 78 1008.9
20260506234405 54 180 0.0 0.0 0.00 0.00 0.00 78 1008.9
20260506233905 54 180 0.0 0.0 0.00 0.00 0.00 78 1008.7
20260506233405 54 180 0.0 0.0 0.00 0.00 0.00 78 1008.7
20260506232905 54 180 0.0 0.0 0.00 0.00 0.00 78 1008.7
20260506232405 54 180 0.0 0.0 0.00 0.00 0.00 78 1008.7
20260506231905 54 180 0.0 0.0 0.00 0.00 0.00 78 1008.7
20260506231405 54 180 0.0 0.0 0.00 0.00 0.00 78 1008.5
20260506230905 54 180 0.0 0.0 0.00 0.00 0.00 78 1008.7
20260506230405 54 180 0.0 0.0 0.00 0.00 0.00 78 1008.7
20260506225905 54 180 0.0 0.0 0.00 0.00 0.00 78 1008.7
20260506225405 54 180 0.0 0.0 0.00 0.00 0.00 78 1008.5
20260506224905 54 180 0.0 0.0 0.00 0.00 0.00 77 1008.5
20260506224405 54 180 0.0 0.0 0.00 0.00 0.00 77 1008.5
20260506223905 55 180 0.0 0.0 0.00 0.00 0.00 77 1008.5
20260506223405 55 180 0.0 0.0 0.00 0.00 0.00 77 1008.5
20260506222905 55 180 0.0 0.0 0.00 0.00 0.00 77 1008.4
20260506222405 55 180 0.0 0.0 0.00 0.00 0.00 77 1008.2
20260506221906 55 180 0.0 0.0 0.00 0.00 0.00 77 1008.2
20260506221405 55 180 0.0 0.0 0.00 0.00 0.00 77 1008.2
20260506220905 55 180 0.0 0.0 0.00 0.00 0.00 77 1008.2
20260506220405 55 180 0.0 0.0 0.00 0.00 0.00 77 1008.2
20260506215905 55 180 0.0 0.0 0.00 0.00 0.00 77 1008.0
20260506215405 55 180 0.0 0.0 0.00 0.00 0.00 76 1008.0
20260506214905 55 180 0.0 0.0 0.00 0.00 0.00 76 1008.0
20260506214405 55 180 0.0 0.0 0.00 0.00 0.00 76 1008.0
20260506213905 55 180 0.0 0.0 0.00 0.00 0.00 76 1007.9
20260506213405 55 180 0.0 0.0 0.00 0.00 0.00 75 1007.7
20260506212905 55 180 0.0 0.0 0.00 0.00 0.00 75 1007.7
20260506212405 56 315 0.0 0.0 0.00 0.00 0.00 75 1007.7
20260506211905 56 315 0.0 0.0 0.00 0.00 0.00 75 1007.9
20260506211405 56 337 0.0 0.0 0.00 0.00 0.00 76 1007.7
20260506210905 56 337 0.0 0.0 0.00 0.00 0.00 76 1007.7
20260506210405 56 337 0.0 0.0 0.00 0.00 0.00 75 1007.5
20260506205905 56 337 0.0 0.0 0.00 0.00 0.00 75 1007.5
20260506205405 56 337 0.0 0.0 0.00 0.00 0.00 75 1007.5
20260506204905 56 337 0.0 0.0 0.00 0.00 0.00 75 1007.4
20260506204405 57 337 0.0 0.0 0.00 0.00 0.00 75 1007.4
20260506203905 57 337 0.0 0.0 0.00 0.00 0.00 74 1007.2
20260506203405 57 337 0.0 0.0 0.00 0.00 0.00 74 1007.2
20260506202905 57 337 0.0 0.0 0.00 0.00 0.00 74 1007.0
20260506202405 57 337 0.0 0.0 0.00 0.00 0.00 74 1007.2
20260506201905 57 337 0.0 0.0 0.00 0.00 0.00 73 1007.2
20260506201405 57 337 0.0 0.0 0.00 0.00 0.00 73 1007.0
20260506200905 57 337 0.0 0.0 0.00 0.00 0.00 73 1006.9
20260506200405 57 202 0.0 0.0 0.00 0.00 0.00 73 1007.0
20260506195905 58 202 0.0 0.0 0.00 0.00 0.00 73 1006.9
20260506195405 58 202 0.0 0.0 0.00 0.00 0.00 72 1006.9
20260506194905 58 202 0.0 0.0 0.00 0.00 0.00 72 1006.7
20260506194405 58 202 0.0 0.0 0.00 0.00 0.00 71 1006.7
20260506193905 58 202 0.0 0.0 0.00 0.00 0.00 70 1006.7
20260506193405 59 225 0.0 0.0 0.00 0.00 0.00 69 1006.5
20260506192905 59 180 0.0 0.0 0.00 0.00 0.00 69 1006.4
20260506192405 60 180 0.0 0.0 0.00 0.00 0.00 66 1006.4
20260506191905 60 157 0.0 0.0 0.00 0.00 0.00 66 1006.2
20260506191405 60 202 0.0 0.0 0.00 0.00 0.00 66 1005.9
20260506190905 60 202 0.0 0.0 0.00 0.00 0.00 65 1006.0
20260506190405 60 202 0.0 0.0 0.00 0.00 0.00 65 1006.0
20260506185905 60 202 0.0 0.0 0.00 0.00 0.00 64 1006.0
20260506185405 60 202 0.0 0.0 0.00 0.00 0.00 64 1005.7
20260506184905 60 202 0.0 0.0 0.00 0.00 0.00 64 1005.7
20260506184405 60 202 0.0 0.0 0.00 0.00 0.00 64 1005.7
20260506183905 60 180 0.0 0.0 0.00 0.00 0.00 63 1005.5
20260506183405 60 180 0.0 0.0 0.00 0.00 0.00 63 1005.4
20260506182905 61 202 0.0 0.0 0.00 0.00 0.00 63 1005.5
20260506182405 61 202 0.0 0.0 0.00 0.00 0.00 63 1005.5
20260506181905 61 225 0.0 0.0 0.00 0.00 0.00 63 1005.5
20260506181405 61 225 0.0 0.0 0.00 0.00 0.00 62 1005.4
20260506180905 61 225 0.0 0.0 0.00 0.00 0.00 62 1005.4
20260506180405 61 225 0.0 0.0 0.00 0.00 0.00 62 1005.4
20260506175905 62 225 0.0 0.0 0.00 0.00 0.00 61 1005.4
20260506175405 62 202 0.0 0.0 0.00 0.00 0.00 61 1005.2
20260506174905 62 225 0.0 0.0 0.00 0.00 0.00 60 1005.2
20260506174405 62 225 0.0 0.0 0.00 0.00 0.00 60 1005.2
20260506173905 62 180 0.0 0.0 0.00 0.00 0.00 60 1005.0
20260506173405 62 202 0.0 0.0 0.00 0.00 0.00 59 1005.0
20260506172905 63 180 0.0 0.0 0.00 0.00 0.00 59 1004.9
20260506172405 63 202 0.0 0.0 0.00 0.00 0.00 59 1004.7
20260506171905 63 225 0.0 0.0 0.00 0.00 0.00 58 1004.9
20260506171405 63 180 0.0 0.0 0.00 0.00 0.00 58 1004.7
20260506170905 63 180 3.0 0.0 0.00 0.00 0.00 57 1004.7
20260506170405 63 180 0.0 0.0 0.00 0.00 0.00 57 1004.7
20260506165905 64 180 0.0 0.0 0.00 0.00 0.00 57 1004.7
20260506165405 64 180 0.0 0.0 0.00 0.00 0.00 57 1004.7
20260506164905 64 270 0.0 0.0 0.00 0.00 0.00 57 1004.7
20260506164405 64 225 0.0 0.0 0.00 0.00 0.00 57 1004.7
20260506163905 64 135 6.0 0.0 0.00 0.00 0.00 56 1004.7
20260506163405 64 202 0.0 0.0 0.00 0.00 0.00 56 1004.7
20260506162905 65 247 0.0 0.0 0.00 0.00 0.00 56 1004.7
20260506162405 65 270 0.0 0.0 0.00 0.00 0.00 55 1004.7
20260506161905 65 180 0.0 0.0 0.00 0.00 0.00 55 1004.7
20260506161405 66 202 0.0 0.0 0.00 0.00 0.00 55 1004.7
20260506160905 66 225 0.0 0.0 0.00 0.00 0.00 54 1004.7
20260506160405 66 270 0.0 0.0 0.00 0.00 0.00 53 1004.7
20260506155905 66 202 0.0 0.0 0.00 0.00 0.00 53 1004.7
20260506155405 67 180 0.0 0.0 0.00 0.00 0.00 52 1004.7
20260506154905 67 180 3.0 0.0 0.00 0.00 0.00 52 1004.7
20260506154405 67 225 0.0 0.0 0.00 0.00 0.00 52 1004.7
20260506153905 68 202 0.0 0.0 0.00 0.00 0.00 51 1004.5
20260506153405 68 180 0.0 0.0 0.00 0.00 0.00 51 1004.5
20260506152905 68 202 0.0 0.0 0.00 0.00 0.00 50 1004.5
20260506152405 69 225 3.0 0.0 0.00 0.00 0.00 50 1004.5
20260506151905 69 202 0.0 0.0 0.00 0.00 0.00 50 1004.5
20260506151405 69 225 3.0 0.0 0.00 0.00 0.00 50 1004.5
20260506150905 70 202 5.0 0.0 0.00 0.00 0.00 49 1004.5
20260506150405 70 225 0.0 0.0 0.00 0.00 0.00 49 1004.4
20260506145905 71 225 0.0 0.0 0.00 0.00 0.00 49 1004.4
20260506145405 71 225 0.0 0.0 0.00 0.00 0.00 49 1004.4
20260506144905 70 247 6.0 0.0 0.00 0.00 0.00 50 1004.2
20260506144405 70 225 0.0 0.0 0.00 0.00 0.00 49 1004.2
20260506143905 71 180 7.0 0.0 0.00 0.00 0.00 49 1004.4
20260506143405 70 157 0.0 0.0 0.00 0.00 0.00 49 1004.4
20260506142905 70 180 0.0 0.0 0.00 0.00 0.00 49 1004.2
20260506142405 70 202 0.0 0.0 0.00 0.00 0.00 49 1004.2
20260506141905 70 180 0.0 0.0 0.00 0.00 0.00 50 1004.2
20260506141405 70 225 0.0 0.0 0.00 0.00 0.00 51 1004.4
20260506140905 70 202 0.0 0.0 0.00 0.00 0.00 51 1004.4
20260506140405 69 270 0.0 0.0 0.00 0.00 0.00 52 1004.2
20260506135905 70 225 0.0 0.0 0.00 0.00 0.00 52 1004.2
20260506135405 69 180 0.0 0.0 0.00 0.00 0.00 52 1004.4
20260506134905 69 225 0.0 0.0 0.00 0.00 0.00 52 1004.2
20260506134405 69 225 0.0 0.0 0.00 0.00 0.00 54 1004.2
20260506133905 68 180 0.0 0.0 0.00 0.00 0.00 54 1004.4
20260506133405 68 180 0.0 0.0 0.00 0.00 0.00 54 1004.5
20260506132905 68 247 0.0 0.0 0.00 0.00 0.00 55 1004.4
20260506132405 67 180 4.0 0.0 0.00 0.00 0.00 55 1004.2
20260506131905 67 225 6.0 0.0 0.00 0.00 0.00 55 1004.2
20260506131405 67 180 0.0 0.0 0.00 0.00 0.00 56 1004.5
20260506130905 66 180 0.0 0.0 0.00 0.00 0.00 56 1004.5
20260506130405 66 225 5.0 0.0 0.00 0.00 0.00 57 1004.7
20260506125905 66 225 0.0 0.0 0.00 0.00 0.00 57 1004.7
20260506125405 66 180 0.0 0.0 0.00 0.00 0.00 57 1004.5
20260506124905 66 247 0.0 0.0 0.00 0.00 0.00 58 1004.5
20260506124405 66 225 3.0 0.0 0.00 0.00 0.00 58 1004.7
20260506123905 66 225 0.0 0.0 0.00 0.00 0.00 59 1004.5
20260506123405 66 247 0.0 0.0 0.00 0.00 0.00 58 1004.7
20260506122905 66 247 5.0 0.0 0.00 0.00 0.00 58 1004.7
20260506122405 66 180 2.0 0.0 0.00 0.00 0.00 58 1004.7
20260506121905 67 202 4.0 0.0 0.00 0.00 0.00 58 1004.5
20260506121405 67 157 0.0 0.0 0.00 0.00 0.00 58 1004.7
20260506120905 67 225 0.0 0.0 0.00 0.00 0.00 58 1004.7
20260506120405 67 202 0.0 0.0 0.00 0.00 0.00 58 1004.7
20260506115905 67 225 0.0 0.0 0.00 0.00 0.00 58 1004.7
20260506115405 67 225 6.0 0.0 0.00 0.00 0.00 59 1004.7
20260506114905 67 180 0.0 0.0 0.00 0.00 0.00 59 1004.7
20260506114405 67 202 0.0 0.0 0.00 0.00 0.00 59 1004.7
20260506113905 66 180 0.0 0.0 0.00 0.00 0.00 61 1004.9
20260506113405 66 180 3.0 0.0 0.00 0.00 0.00 61 1004.9
20260506112905 66 180 0.0 0.0 0.00 0.00 0.00 61 1005.0
20260506112405 65 225 4.0 0.0 0.00 0.00 0.00 62 1004.7
20260506111905 65 225 6.0 0.0 0.00 0.00 0.00 62 1004.9
20260506111405 65 202 0.0 0.0 0.00 0.00 0.00 63 1005.0
20260506110905 64 202 4.0 0.0 0.00 0.00 0.00 64 1005.0
20260506110405 64 180 0.0 0.0 0.00 0.00 0.00 64 1005.0
20260506105905 64 157 0.0 0.0 0.00 0.00 0.00 65 1005.0
20260506105405 63 180 0.0 0.0 0.00 0.00 0.00 66 1005.0
20260506104905 63 225 0.0 0.0 0.00 0.00 0.00 66 1005.0
20260506104405 62 202 0.0 0.0 0.00 0.00 0.00 67 1005.2
20260506103905 62 180 0.0 0.0 0.00 0.00 0.00 66 1005.2
20260506103405 62 180 0.0 0.0 0.00 0.00 0.00 68 1004.9
20260506102905 62 225 0.0 0.0 0.00 0.00 0.00 68 1004.7
20260506102405 62 180 0.0 0.0 0.00 0.00 0.00 68 1005.0
20260506101905 62 180 0.0 0.0 0.00 0.00 0.00 68 1005.0
20260506101405 62 180 0.0 0.0 0.00 0.00 0.00 69 1005.0
20260506100905 62 202 3.0 0.0 0.00 0.00 0.00 71 1005.0
20260506100405 61 225 5.0 0.0 0.00 0.00 0.00 71 1005.0
20260506095905 60 180 0.0 0.0 0.00 0.00 0.00 71 1005.2
20260506095405 59 180 0.0 0.0 0.00 0.00 0.00 72 1005.2
20260506094905 59 225 0.0 0.0 0.00 0.00 0.00 72 1005.2
20260506094405 59 157 0.0 0.0 0.00 0.00 0.00 72 1005.2
20260506093905 58 135 0.0 0.0 0.00 0.00 0.00 72 1005.2
20260506093405 58 202 0.0 0.0 0.00 0.00 0.00 72 1005.2
20260506092905 58 202 0.0 0.0 0.00 0.00 0.00 73 1005.2
20260506092405 58 225 0.0 0.0 0.00 0.00 0.00 73 1005.2
20260506091905 58 202 0.0 0.0 0.00 0.00 0.00 73 1005.0
20260506091405 58 202 0.0 0.0 0.00 0.00 0.00 74 1005.2
20260506090905 58 180 0.0 0.0 0.00 0.00 0.00 74 1005.0
20260506090405 58 202 0.0 0.0 0.00 0.00 0.00 74 1005.2
20260506085905 58 225 0.0 0.0 0.00 0.00 0.00 74 1005.0
20260506085405 58 180 0.0 0.0 0.00 0.00 0.00 73 1005.0
20260506084905 58 180 0.0 0.0 0.00 0.00 0.00 73 1005.0
20260506084405 58 180 0.0 0.0 0.00 0.00 0.00 73 1005.2
20260506083905 58 180 0.0 0.0 0.00 0.00 0.00 74 1004.9
20260506083405 58 247 0.0 0.0 0.00 0.00 0.00 74 1004.9
20260506082905 58 180 0.0 0.0 0.00 0.00 0.00 74 1004.7
20260506082405 58 202 0.0 0.0 0.00 0.00 0.00 74 1004.7
20260506081905 58 180 0.0 0.0 0.00 0.00 0.00 74 1004.7
20260506081405 58 180 0.0 0.0 0.00 0.00 0.00 74 1004.7
20260506080905 57 202 0.0 0.0 0.00 0.00 0.00 75 1004.5
20260506080405 57 225 2.0 0.0 0.00 0.00 0.00 75 1004.5
20260506073405 55 157 0.0 0.0 0.00 0.00 0.00 77 1005.0
20260506072905 55 202 0.0 0.0 0.00 0.00 0.00 77 1005.0
20260506072405 55 202 0.0 0.0 0.00 0.00 0.00 77 1005.0
20260506071905 55 202 0.0 0.0 0.00 0.00 0.00 77 1005.0
20260506071405 55 202 0.0 0.0 0.00 0.00 0.00 77 1005.0
20260506070905 55 180 0.0 0.0 0.00 0.00 0.00 78 1005.0
20260506070405 55 157 0.0 0.0 0.00 0.00 0.00 78 1005.0
20260506062405 56 202 0.0 0.0 0.00 0.00 0.00 80 1004.5
20260506061905 56 180 0.0 0.0 0.00 0.00 0.00 80 1004.7
20260506061405 55 180 8.0 0.0 0.00 0.00 0.00 80 1004.7
20260506060905 55 180 0.0 0.0 0.00 0.00 0.00 81 1004.9
20260506060405 55 180 9.0 0.0 0.00 0.00 0.00 81 1004.7
20260506051405 53 180 0.0 0.0 0.00 0.00 0.00 82 1004.7
20260506050905 53 180 0.0 0.0 0.00 0.00 0.00 82 1005.0
20260506050405 53 180 0.0 0.0 0.00 0.00 0.00 82 1005.0
20260506044905 53 180 0.0 0.0 0.00 0.00 0.00 82 1004.9
20260506044405 53 180 0.0 0.0 0.00 0.00 0.00 82 1004.7
20260506043905 53 180 0.0 0.0 0.00 0.00 0.00 82 1004.7
20260506043405 53 180 0.0 0.0 0.00 0.00 0.00 82 1004.7
20260506042905 53 180 0.0 0.0 0.00 0.00 0.00 82 1004.7
20260506042405 53 180 0.0 0.0 0.00 0.00 0.00 82 1004.7
20260506041905 53 180 0.0 0.0 0.00 0.00 0.00 82 1004.7
20260506041405 53 180 0.0 0.0 0.00 0.00 0.00 82 1004.7
20260506040905 53 157 0.0 0.0 0.00 0.00 0.00 82 1004.7
20260506040405 53 157 0.0 0.0 0.00 0.00 0.00 82 1004.9
20260506035905 53 157 0.0 0.0 0.00 0.00 0.00 82 1005.0
20260506035405 54 157 0.0 0.0 0.00 0.00 0.00 82 1005.0
20260506034905 54 157 0.0 0.0 0.00 0.00 0.00 82 1005.0
20260506034405 54 157 0.0 0.0 0.00 0.00 0.00 82 1005.0
20260506033905 54 157 0.0 0.0 0.00 0.00 0.00 82 1005.0
20260506033405 54 157 0.0 0.0 0.00 0.00 0.00 82 1005.0
20260506032905 54 157 0.0 0.0 0.00 0.00 0.00 82 1005.0
20260506032405 54 157 0.0 0.0 0.00 0.00 0.00 82 1005.0
20260506031905 54 157 0.0 0.0 0.00 0.00 0.00 82 1005.0
20260506031405 54 157 0.0 0.0 0.00 0.00 0.00 82 1005.2
20260506030905 54 157 0.0 0.0 0.00 0.00 0.00 82 1005.2
20260506030405 54 157 0.0 0.0 0.00 0.00 0.00 82 1005.5
20260506025905 54 157 0.0 0.0 0.00 0.00 0.00 82 1005.5
20260506025405 54 157 0.0 0.0 0.00 0.00 0.00 82 1005.5
20260506024905 54 157 0.0 0.0 0.00 0.00 0.00 82 1005.5
20260506024405 54 157 0.0 0.0 0.00 0.00 0.00 82 1005.5
20260506023905 54 157 0.0 0.0 0.00 0.00 0.00 82 1005.4
20260506023405 54 157 0.0 0.0 0.00 0.00 0.00 82 1005.5
20260506022905 54 157 0.0 0.0 0.00 0.00 0.00 82 1005.5
20260506022405 54 157 0.0 0.0 0.00 0.00 0.00 82 1005.5
20260506021905 54 157 0.0 0.0 0.00 0.00 0.00 82 1005.4
20260506021405 54 157 0.0 0.0 0.00 0.00 0.00 82 1005.4
20260506020905 54 157 0.0 0.0 0.00 0.00 0.00 82 1005.4
20260506020405 54 157 0.0 0.0 0.00 0.00 0.00 82 1005.4
20260506015905 55 157 0.0 0.0 0.00 0.00 0.00 82 1005.2
20260506015405 55 157 0.0 0.0 0.00 0.00 0.00 82 1005.2
20260506014905 55 157 0.0 0.0 0.00 0.00 0.00 82 1005.2
20260506014405 55 157 0.0 0.0 0.00 0.00 0.00 82 1005.2
20260506013905 55 157 0.0 0.0 0.00 0.00 0.00 82 1005.2
20260506013405 55 157 0.0 0.0 0.00 0.00 0.00 82 1005.4
20260506012905 55 157 0.0 0.0 0.00 0.00 0.00 82 1005.5
20260506012405 55 157 0.0 0.0 0.00 0.00 0.00 81 1005.5
20260506011905 55 157 0.0 0.0 0.00 0.00 0.00 81 1005.5
20260506011405 55 157 0.0 0.0 0.00 0.00 0.00 81 1005.5
20260506010905 55 157 0.0 0.0 0.00 0.00 0.00 81 1005.5
20260506010405 55 157 0.0 0.0 0.00 0.00 0.00 81 1005.7
20260506005905 55 157 0.0 0.0 0.00 0.00 0.00 81 1005.5
20260506005405 55 157 0.0 0.0 0.00 0.00 0.00 81 1005.5
20260506004905 56 157 0.0 0.0 0.00 0.00 0.00 81 1005.7
20260506004405 56 157 0.0 0.0 0.00 0.00 0.00 81 1005.7